When you browse on this site, cookies collect data to enhance your experience and personalize the content and advertising you see.
Visit our Privacy Policy to learn more. By continuing to use the site, you agree to this use of cookies and data.

Hourly Weather Uige

Today, 7 July, Tuesday

Time Temperature Precipitation Wind Pressure Humidity
00:00 +19°C° 0 mm 1 mps 691 mmHg 63%
01:00 +18°C° 0 mm 1 mps 691 mmHg 72%
02:00 +16°C° 0 mm 1 mps 691 mmHg 76%
03:00 +16°C° 0 mm 1 mps 690 mmHg 79%
04:00 +16°C° 0 mm 1 mps 690 mmHg 83%
05:00 +16°C° 0 mm 1 mps 691 mmHg 80%
06:00 +18°C° 0 mm 1 mps 691 mmHg 77%
07:00 +18°C° 0 mm 1 mps 691 mmHg 74%
08:00 +22°C° 0 mm 1 mps 692 mmHg 58%
09:00 +26°C° 0 mm 2 mps 693 mmHg 42%
10:00 +30°C° 0 mm 2 mps 693 mmHg 26%
11:00 +33°C° 0 mm 1 mps 693 mmHg 22%
12:00 +35°C° 0 mm 1 mps 692 mmHg 17%
13:00 +37°C° 0 mm 1 mps 692 mmHg 13%
14:00 +36°C° 0 mm 1 mps 691 mmHg 14%
15:00 +36°C° 0 mm 1 mps 690 mmHg 14%
16:00 +35°C° 0 mm 1 mps 689 mmHg 14%
17:00 +31°C° 0 mm 1 mps 689 mmHg 20%
18:00 +25°C° 0 mm 0 mps 689 mmHg 26%
19:00 +22°C° 0 mm 0 mps 689 mmHg 32%
20:00 +21°C° 0 mm 0 mps 689 mmHg 34%
21:00 +20°C° 0 mm 0 mps 690 mmHg 36%
22:00 +21°C° 0 mm 1 mps 690 mmHg 38%
23:00 +19°C° 0 mm 0 mps 690 mmHg 42%

Tomorrow, 8 July, Wednesday

Time Temperature Precipitation Wind Pressure Humidity
00:00 +18°C° 0 mm 0 mps 690 mmHg 45%
01:00 +17°C° 0 mm 0 mps 690 mmHg 48%
02:00 +16°C° 0 mm 0 mps 690 mmHg 50%
03:00 +16°C° 0 mm 0 mps 689 mmHg 51%
04:00 +15°C° 0 mm 0 mps 689 mmHg 53%
05:00 +16°C° 0 mm 0 mps 690 mmHg 53%
06:00 +16°C° 0 mm 0 mps 690 mmHg 54%
07:00 +18°C° 0 mm 1 mps 691 mmHg 54%
08:00 +23°C° 0 mm 1 mps 692 mmHg 44%
09:00 +27°C° 0 mm 1 mps 693 mmHg 35%
10:00 +31°C° 0 mm 1 mps 693 mmHg 26%
11:00 +33°C° 0 mm 1 mps 693 mmHg 21%
12:00 +35°C° 0 mm 1 mps 693 mmHg 17%
13:00 +37°C° 0 mm 1 mps 692 mmHg 13%
14:00 +36°C° 0 mm 1 mps 691 mmHg 14%
15:00 +36°C° 0 mm 1 mps 691 mmHg 15%
16:00 +35°C° 0 mm 1 mps 690 mmHg 15%
17:00 +31°C° 0 mm 1 mps 690 mmHg 23%
18:00 +28°C° 0 mm 1 mps 690 mmHg 31%
19:00 +22°C° 0 mm 0 mps 689 mmHg 39%
20:00 +21°C° 0 mm 0 mps 690 mmHg 41%
21:00 +23°C° 0 mm 1 mps 690 mmHg 43%
22:00 +22°C° 0 mm 1 mps 690 mmHg 46%
23:00 +21°C° 0 mm 1 mps 690 mmHg 49%

Day after tomorrow, 9 July, Thursday

Time Temperature Precipitation Wind Pressure Humidity
00:00 +18°C° 0 mm 0 mps 690 mmHg 53%
01:00 +17°C° 0 mm 0 mps 690 mmHg 57%
02:00 +17°C° 0 mm 0 mps 690 mmHg 60%
03:00 +16°C° 0 mm 0 mps 690 mmHg 63%
04:00 +16°C° 0 mm 0 mps 689 mmHg 67%
05:00 +18°C° 0 mm 1 mps 690 mmHg 66%
06:00 +19°C° 0 mm 1 mps 691 mmHg 65%
07:00 +19°C° 0 mm 1 mps 691 mmHg 65%
08:00 +23°C° 0 mm 1 mps 692 mmHg 54%
09:00 +27°C° 0 mm 1 mps 693 mmHg 43%
10:00 +31°C° 0 mm 1 mps 693 mmHg 32%
11:00 +33°C° 0 mm 1 mps 693 mmHg 28%
12:00 +35°C° 0 mm 1 mps 692 mmHg 24%
13:00 +37°C° 0 mm 1 mps 692 mmHg 20%
14:00 +37°C° 0 mm 2 mps 691 mmHg 20%
15:00 +36°C° 0 mm 2 mps 690 mmHg 21%
16:00 +35°C° 0 mm 3 mps 690 mmHg 22%
17:00 +31°C° 0 mm 2 mps 690 mmHg 28%
18:00 +29°C° 0 mm 2 mps 690 mmHg 34%
19:00 +26°C° 0 mm 1 mps 690 mmHg 40%
20:00 +24°C° 0 mm 1 mps 690 mmHg 45%
21:00 +23°C° 0 mm 1 mps 691 mmHg 50%
22:00 +21°C° 0 mm 1 mps 691 mmHg 55%
23:00 +20°C° 0 mm 1 mps 691 mmHg 60%

10 July, Friday

Time Temperature Precipitation Wind Pressure Humidity
00:00 +20°C° 0 mm 1 mps 690 mmHg 66%
01:00 +19°C° 0 mm 1 mps 690 mmHg 72%
02:00 +18°C° 0 mm 1 mps 690 mmHg 77%
03:00 +18°C° 0 mm 1 mps 690 mmHg 82%
04:00 +16°C° 0 mm 1 mps 690 mmHg 87%
05:00 +18°C° 0 mm 1 mps 690 mmHg 85%
06:00 +18°C° 0 mm 1 mps 691 mmHg 82%
07:00 +18°C° 0 mm 1 mps 691 mmHg 80%
08:00 +22°C° 0 mm 1 mps 692 mmHg 62%
09:00 +26°C° 0 mm 1 mps 692 mmHg 44%
10:00 +30°C° 0 mm 2 mps 693 mmHg 27%
11:00 +32°C° 0 mm 2 mps 692 mmHg 24%
12:00 +35°C° 0 mm 2 mps 692 mmHg 21%
13:00 +36°C° 0 mm 2 mps 691 mmHg 18%
14:00 +36°C° 0 mm 2 mps 691 mmHg 18%
15:00 +36°C° 0 mm 3 mps 690 mmHg 18%
16:00 +35°C° 0 mm 3 mps 690 mmHg 19%
17:00 +31°C° 0 mm 2 mps 690 mmHg 26%
18:00 +28°C° 0 mm 2 mps 690 mmHg 33%
19:00 +25°C° 0 mm 1 mps 690 mmHg 40%
20:00 +23°C° 0 mm 1 mps 690 mmHg 49%
21:00 +21°C° 0 mm 1 mps 690 mmHg 58%
22:00 +20°C° 0 mm 1 mps 691 mmHg 66%
23:00 +19°C° 0 mm 1 mps 690 mmHg 75%

11 July, Saturday

Time Temperature Precipitation Wind Pressure Humidity
00:00 +18°C° 0 mm 1 mps 690 mmHg 85%
01:00 +16°C° 0 mm 1 mps 690 mmHg 94%
02:00 +16°C° 0 mm 1 mps 690 mmHg 94%
03:00 +15°C° 0 mm 0 mps 690 mmHg 95%
04:00 +15°C° 0 mm 0 mps 689 mmHg 96%
05:00 +15°C° 0 mm 0 mps 690 mmHg 92%
06:00 +16°C° 0 mm 0 mps 690 mmHg 88%
07:00 +16°C° 0 mm 0 mps 691 mmHg 84%
08:00 +22°C° 0 mm 1 mps 691 mmHg 67%
09:00 +25°C° 0 mm 1 mps 692 mmHg 50%
10:00 +29°C° 0 mm 1 mps 693 mmHg 32%
11:00 +30°C° 0 mm 1 mps 692 mmHg 29%
12:00 +32°C° 0 mm 2 mps 692 mmHg 25%
13:00 +35°C° 0 mm 2 mps 691 mmHg 22%
14:00 +35°C° 0 mm 2 mps 691 mmHg 22%
15:00 +34°C° 0 mm 2 mps 690 mmHg 23%
16:00 +34°C° 0 mm 3 mps 689 mmHg 23%
17:00 +30°C° 0 mm 2 mps 689 mmHg 29%
18:00 +27°C° 0 mm 2 mps 689 mmHg 36%
19:00 +24°C° 0 mm 1 mps 690 mmHg 42%
20:00 +22°C° 0 mm 1 mps 690 mmHg 49%
21:00 +21°C° 0 mm 1 mps 690 mmHg 56%
22:00 +19°C° 0 mm 1 mps 691 mmHg 62%
23:00 +19°C° 0 mm 1 mps 691 mmHg 68%

12 July, Sunday

Time Temperature Precipitation Wind Pressure Humidity
00:00 +18°C° 0 mm 1 mps 690 mmHg 74%
01:00 +15°C° 0 mm 0 mps 690 mmHg 80%
02:00 +15°C° 0 mm 0 mps 690 mmHg 84%
03:00 +14°C° 0 mm 0 mps 690 mmHg 88%
04:00 +14°C° 0 mm 0 mps 690 mmHg 92%
05:00 +14°C° 0 mm 0 mps 691 mmHg 90%
06:00 +15°C° 0 mm 0 mps 691 mmHg 88%
07:00 +15°C° 0 mm 0 mps 692 mmHg 86%
08:00 +21°C° 0 mm 1 mps 692 mmHg 69%
09:00 +25°C° 0 mm 1 mps 693 mmHg 51%
10:00 +30°C° 0 mm 1 mps 694 mmHg 33%
11:00 +31°C° 0 mm 1 mps 693 mmHg 30%
12:00 +32°C° 0 mm 2 mps 693 mmHg 27%
13:00 +35°C° 0 mm 2 mps 692 mmHg 24%
14:00 +34°C° 0 mm 2 mps 691 mmHg 25%
15:00 +34°C° 0 mm 2 mps 691 mmHg 27%
16:00 +32°C° 0 mm 2 mps 690 mmHg 28%
17:00 +30°C° 0 mm 2 mps 690 mmHg 33%
18:00 +28°C° 0 mm 2 mps 691 mmHg 39%
19:00 +25°C° 0 mm 2 mps 691 mmHg 44%
20:00 +23°C° 0 mm 1 mps 691 mmHg 52%
21:00 +22°C° 0 mm 1 mps 691 mmHg 59%
22:00 +20°C° 0 mm 1 mps 692 mmHg 67%
23:00 +19°C° 0 mm 1 mps 691 mmHg 75%
Show more